TimeCDT,TemperatureF,Dew PointF,Humidity,Sea Level PressureIn,VisibilityMPH,Wind Direction,Wind SpeedMPH,Gust SpeedMPH,PrecipitationIn,Events,Conditions,WindDirDegrees,DateUTC
12:47 AM,55.4,50.0,82,29.87,3.0,Calm,Calm,-,N/A,,Haze,0,2013-06-13 05:47:00
1:40 AM,55.4,50.0,82,30.46,3.0,Calm,Calm,-,N/A,,Haze,0,2013-06-13 06:40:00
2:40 AM,55.4,50.0,82,30.44,3.0,Calm,Calm,-,N/A,,Haze,0,2013-06-13 07:40:00
3:45 AM,53.6,50.0,88,29.88,3.0,Calm,Calm,-,N/A,,Haze,0,2013-06-13 08:45:00
4:40 AM,53.6,50.0,88,30.41,3.0,Calm,Calm,-,N/A,,Haze,0,2013-06-13 09:40:00
5:43 AM,53.6,50.0,88,30.41,3.0,Calm,Calm,-,N/A,,Mostly Cloudy,0,2013-06-13 10:43:00
6:51 AM,53.6,50.0,88,29.89,3.0,Calm,Calm,-,N/A,,Overcast,0,2013-06-13 11:51:00
7:46 AM,53.6,50.0,88,30.44,3.0,ENE,4.6,-,N/A,,Overcast,70,2013-06-13 12:46:00
8:41 AM,55.4,50.0,82,30.46,5.0,ESE,3.5,-,N/A,,Overcast,120,2013-06-13 13:41:00
9:49 AM,57.2,50.0,77,29.93,5.0,Calm,Calm,-,N/A,,Overcast,0,2013-06-13 14:49:00
10:43 AM,59.0,50.0,72,30.48,5.0,Calm,Calm,-,N/A,,Overcast,0,2013-06-13 15:43:00
11:43 AM,62.6,50.0,63,30.47,6.0,Calm,Calm,-,N/A,,Overcast,0,2013-06-13 16:43:00
12:49 PM,62.6,48.2,59,29.89,6.0,NNE,2.3,-,N/A,,Overcast,30,2013-06-13 17:49:00
1:43 PM,64.4,50.0,59,30.44,6.0,ENE,3.5,-,N/A,,Overcast,60,2013-06-13 18:43:00
2:44 PM,68.0,48.2,49,30.41,6.0,ESE,6.9,-,N/A,,Overcast,120,2013-06-13 19:44:00
3:52 PM,68.0,46.4,46,29.79,6.0,SE,3.5,-,N/A,,Overcast,140,2013-06-13 20:52:00
4:44 PM,66.2,46.4,49,30.37,6.0,SE,6.9,-,N/A,,Overcast,130,2013-06-13 21:44:00
5:52 PM,62.6,50.0,63,30.36,6.0,NW,6.9,-,N/A,,Mostly Cloudy,320,2013-06-13 22:52:00
6:49 PM,62.6,51.8,68,29.78,6.0,South,5.8,-,N/A,,Mostly Cloudy,180,2013-06-13 23:49:00
7:42 PM,57.2,46.4,67,30.38,6.0,NE,13.8,-,N/A,Thunderstorm,Thunderstorm,50,2013-06-14 00:42:00
7:56 PM,55.4,48.2,77,30.38,2.0,NNE,5.8,-,N/A,Rain-Thunderstorm,Thunderstorms and Rain,30,2013-06-14 00:56:00
8:40 PM,53.6,50.0,88,30.38,3.0,Calm,Calm,-,N/A,Rain,Light Rain,0,2013-06-14 01:40:00
9:45 PM,55.4,50.0,82,29.84,3.0,WNW,4.6,-,N/A,Rain,Light Rain,290,2013-06-14 02:45:00
10:45 PM,55.4,50.0,82,30.41,5.0,Calm,Calm,-,N/A,,Mostly Cloudy,0,2013-06-14 03:45:00
11:45 PM,55.4,50.0,82,20.42,5.0,Calm,Calm,-,N/A,,Mostly Cloudy,0,2013-06-14 04:45:00